Weather History for Ely, NV

Change the Weather History Date:

Wednesday, December 5, 2012

  Actual Average Record
Temperature  
Mean Temperature 44 °F 26 °F  
Max Temperature 52 °F 41 °F 67 °F (1910)
Min Temperature 35 °F 12 °F -23 °F (2013)
Degree Days  
Heating Degree Days 21 39  
Month to date heating degree days 121 190  
Since 1 July heating degree days 1543 2058  
Cooling Degree Days 0 0  
Month to date cooling degree days 0 0  
Year to date cooling degree days 314 218  
Moisture  
Dew Point 34 °F    
Average Humidity 71    
Maximum Humidity 92    
Minimum Humidity 50    
Precipitation  
Precipitation 0.00 in 0.02 in 0.84 in (1966)
Month to date precipitation 0.15 0.08  
Year to date precipitation 10.67 9.25  
Snow  
Snow 0.00 in 0.20 in 5.50 in (1980)
Month to date snowfall T 1.0  
Since 1 July snowfall 10.0 10.5  
Snow Depth 0.00 in    
Sea Level Pressure  
Sea Level Pressure 30.06 in    
Wind  
Wind Speed 6 mph (West)    
Max Wind Speed 16 mph    
Max Gust Speed 22 mph    
Visibility 10 miles    
Events      
T = Trace of Precipitation, MM = Missing Value Source: NWS Daily Summary

Daily Weather History Graph

Daily Weather History Graph

Search for Another Location

Airport:

Trip Planner

Search our weather history database for the weather conditions in past years. The results will help you decide how hot, cold, wet, or windy it might be!

Date:

Astronomy

Dec. 05, 2012 Rise Set
Actual Time 6:44 AM PST 4:16 PM PST
Civil Twilight 6:14 AM PST 4:45 PM PST
Nautical Twilight 5:41 AM PST 5:19 PM PST
Astronomical Twilight 5:08 AM PST 5:51 PM PST
Moon 11:08 PM PST (12/5) 11:11 AM PST (12/5)
Length of Visible Light 10h 31m
Length of Day
9h 31m
Waning Gibbous, 58% of the Moon is Illuminated
Dec 5
Waning Gibbous
Dec 6
Last Quarter
Dec 13
New
Dec 19
First Quarter
Dec 28
Full

Hourly Weather History & Observations

Time (PST) Temp. Windchill Dew Point Humidity Pressure Visibility Wind Dir Wind Speed Gust Speed Precip Events Conditions
12:53 AM 42.1 °F 36.6 °F 30.9 °F 65% 30.11 in 10.0 mi SSW 9.2 mph 19.6 mph N/A   Mostly Cloudy
1:53 AM 42.1 °F 35.2 °F 30.0 °F 62% 30.09 in 10.0 mi SW 12.7 mph - N/A   Partly Cloudy
2:53 AM 42.1 °F 36.1 °F 30.0 °F 62% 30.09 in 10.0 mi SSW 10.4 mph - N/A   Overcast
3:53 AM 43.0 °F 37.7 °F 28.9 °F 58% 30.07 in 10.0 mi SSW 9.2 mph - N/A   Overcast
4:53 AM 41.0 °F 34.3 °F 30.0 °F 65% 30.08 in 10.0 mi South 11.5 mph - N/A   Mostly Cloudy
6:53 AM 39.0 °F 36.8 °F 30.9 °F 73% 30.12 in 10.0 mi East 3.5 mph - N/A   Overcast
7:53 AM 42.1 °F 39.2 °F 32.0 °F 67% 30.11 in 10.0 mi North 4.6 mph - N/A   Overcast
8:53 AM 43.0 °F 40.3 °F 33.1 °F 68% 30.10 in 10.0 mi ESE 4.6 mph - N/A   Overcast
9:53 AM 46.0 °F - 35.1 °F 66% 30.09 in 10.0 mi Calm Calm - N/A   Overcast
10:53 AM 48.9 °F - 34.0 °F 56% 30.09 in 10.0 mi Calm Calm - N/A   Overcast
11:53 AM 51.1 °F - 34.0 °F 52% 30.05 in 10.0 mi West 8.1 mph - N/A   Overcast
12:53 PM 51.1 °F - 36.0 °F 56% 30.03 in 10.0 mi NNE 4.6 mph - N/A   Overcast
1:53 PM 51.1 °F - 37.0 °F 59% 30.01 in 10.0 mi WNW 8.1 mph - N/A   Overcast
2:53 PM 50.0 °F - 37.0 °F 61% 30.02 in 10.0 mi NW 5.8 mph - N/A   Overcast
3:53 PM 48.9 °F - 37.9 °F 66% 30.01 in 10.0 mi NW 5.8 mph - N/A   Overcast
4:53 PM 45.0 °F 43.5 °F 37.0 °F 74% 30.03 in 10.0 mi West 3.5 mph - N/A   Scattered Clouds
5:53 PM 44.1 °F 40.1 °F 37.0 °F 76% 30.06 in 10.0 mi WNW 6.9 mph - N/A   Mostly Cloudy
6:53 PM 44.1 °F 40.8 °F 37.0 °F 76% 30.05 in 10.0 mi WNW 5.8 mph - N/A   Overcast
7:53 PM 44.1 °F 42.5 °F 37.0 °F 76% 30.05 in 10.0 mi West 3.5 mph - N/A   Overcast
8:53 PM 43.0 °F 39.5 °F 37.0 °F 80% 30.04 in 10.0 mi West 5.8 mph - N/A   Mostly Cloudy
9:53 PM 39.0 °F - 35.1 °F 86% 30.02 in 10.0 mi Calm Calm - N/A   Partly Cloudy
10:53 PM 35.1 °F 31.0 °F 33.1 °F 92% 30.04 in 10.0 mi South 4.6 mph - N/A   Overcast
11:53 PM 36.0 °F - 34.0 °F 93% 30.01 in 10.0 mi Calm Calm - N/A   Overcast